Location: Bottens
(46.6171°N, 6.6605°E)
Time: 18:29:09
(UTC+00:00)

SJ 16-02 - Pass Details

Date: 20 June 2021
Orbit: 606 x 616 km, 75.0° (Epoch: 31 July)

Event Time Altitude Azimuth Distance (km) Brightness Sun altitude
Rises 00:33:41 0° 326° (NNW) 2,873 5.4 -18.7°
Reaches altitude 10° 00:36:20 10° 311° (NW) 1,963 4.2 -18.6°
Maximum altitude 00:39:37 21° 262° (W) 1,376 2.9 -18.4°
Enters shadow 00:40:02 21° 254° (WSW) 1,388 2.9 -18.4°
